This is the latest recevied weather packets stored in our database for station/object NorthRyde. If no packets are shown the sender has not sent any weather packets the latest 10 day(s).
| Time | Temp. | Humidity | Pressure | Rain* | Wind** | Luminosity | Snow |
|---|---|---|---|---|---|---|---|
| 1777425252 | 22.78° C | 66% | 1030 hPa | 0 mm | - | 617 W/m² | - |
| 1777425191 | 22.78° C | 66% | 1030 hPa | 0 mm | - | 626 W/m² | - |
| 1777425132 | 22.22° C | 66% | 1030.1 hPa | 0 mm | - | 628 W/m² | - |
| 1777425072 | 22.22° C | 66% | 1030 hPa | 0 mm | - | 624 W/m² | - |
| 1777425011 | 22.22° C | 67% | 1029.9 hPa | 0 mm | - | 628 W/m² | - |
| 1777424952 | 22.22° C | 66% | 1029.9 hPa | 0 mm | - | 617 W/m² | - |
| 1777424891 | 22.22° C | 67% | 1030 hPa | 0 mm | - | 624 W/m² | - |
| 1777424829 | 22.22° C | 67% | 1029.9 hPa | 0 mm | - | 619 W/m² | - |
| 1777424770 | 22.22° C | 66% | 1029.9 hPa | 0 mm | - | 624 W/m² | - |
| 1777424709 | 22.22° C | 66% | 1029.8 hPa | 0 mm | - | 628 W/m² | - |
| 1777424650 | 22.22° C | 67% | 1029.9 hPa | 0 mm | - | 631 W/m² | - |
| 1777424591 | 22.22° C | 68% | 1029.9 hPa | 0 mm | - | 624 W/m² | - |
| 1777424531 | 22.22° C | 67% | 1029.9 hPa | 0 mm | - | 624 W/m² | - |
| 1777424469 | 22.22° C | 67% | 1029.9 hPa | 0 mm | - | 633 W/m² | - |
| 1777424410 | 22.22° C | 66% | 1030.1 hPa | 0 mm | - | 636 W/m² | - |
| 1777424350 | 22.22° C | 67% | 1030.2 hPa | 0 mm | - | 636 W/m² | - |
| 1777424292 | 22.22° C | 68% | 1030.1 hPa | 0 mm | - | 636 W/m² | - |
| 1777424232 | 22.22° C | 67% | 1030.2 hPa | 0 mm | - | 636 W/m² | - |
| 1777424169 | 22.22° C | 67% | 1030.1 hPa | 0 mm | - | 633 W/m² | - |
| 1777424109 | 22.22° C | 67% | 1030.3 hPa | 0 mm | - | 633 W/m² | - |
| 1777424050 | 22.22° C | 67% | 1030.3 hPa | 0 mm | - | 629 W/m² | - |
| 1777423991 | 21.67° C | 68% | 1030.1 hPa | 0 mm | - | 628 W/m² | - |
| 1777423932 | 21.67° C | 67% | 1030.2 hPa | 0 mm | - | 626 W/m² | - |
| 1777423871 | 21.67° C | 67% | 1030.3 hPa | 0 mm | - | 624 W/m² | - |
| 1777423809 | 21.67° C | 67% | 1030.2 hPa | 0 mm | - | 624 W/m² | - |
* Rain latest hour (hover to see other rain measurements)
** Current wind speed in m/s (hover to see current wind gust speed)